Berlin, NH

2:06 PM EDT on July 28, 2017 (GMT -0400)
Berlin Municipal

Weather History for KBML - April, 2014

Change the Weather History Date:

Wednesday, April 30, 2014

  Actual Average Record
Temperature  
Mean Temperature 41 °F -  
Max Temperature 48 °F 57 °F 81 °F (2004)
Min Temperature 36 °F 29 °F 21 °F (2001)
Degree Days  
Heating Degree Days 24    
Moisture  
Dew Point 33 °F    
Average Humidity 77    
Maximum Humidity 87    
Minimum Humidity 61    
Precipitation  
Precipitation 0.13 in - - ()
Sea Level Pressure  
Sea Level Pressure 30.40 in    
Wind  
Wind Speed 11 mph (SE)    
Max Wind Speed 16 mph    
Max Gust Speed 24 mph    
Visibility 10 miles    
Events Rain    
Averages and records for this station are not official NWS values.
T = Trace of Precipitation, MM = Missing Value Source: NWS Daily Summary

Daily Weather History Graph

Daily Weather History Graph

Search for Another Location

Airport or City:

Trip Planner

Search our weather history database for the weather conditions in past years. The results will help you decide how hot, cold, wet, or windy it might be!

Date:

Astronomy

Apr. 30, 2014 Rise Set
Actual Time 5:36 AM EDT 7:48 PM EDT
Civil Twilight 5:04 AM EDT 8:20 PM EDT
Nautical Twilight 4:25 AM EDT 8:59 PM EDT
Astronomical Twilight 3:41 AM EDT 9:43 PM EDT
Moon 6:34 AM EDT (4/30) 9:26 PM EDT (4/30)
Length of Visible Light 15h 15m
Length of Day
14h 11m
New Moon, 2% of the Moon is Illuminated
Apr 30
New Moon
May 6
First Quarter
May 14
Full
May 21
Last Quarter
May 28
New

Hourly Weather History & Observations

Time (EDT) Temp. Windchill Dew Point Humidity Pressure Visibility Wind Dir Wind Speed Gust Speed Precip Events Conditions
12:52 AM 39.0 °F 33.4 °F 30.9 °F 73% 30.53 in 10.0 mi SE 8.1 mph - N/A   Overcast
1:30 AM 39.0 °F 32.3 °F 30.9 °F 73% 30.49 in 10.0 mi SE 10.4 mph 21.9 mph N/A   Overcast
1:52 AM 39.0 °F 31.0 °F 30.9 °F 73% 30.53 in 10.0 mi SE 13.8 mph - N/A   Overcast
2:52 AM 37.9 °F 30.9 °F 30.9 °F 76% 30.53 in 10.0 mi SE 10.4 mph - N/A   Overcast
3:52 AM 37.9 °F 30.9 °F 30.9 °F 76% 30.52 in 10.0 mi SE 10.4 mph - N/A   Overcast
4:52 AM 37.9 °F 32.7 °F 30.9 °F 76% 30.52 in 10.0 mi SE 6.9 mph - 0.00 in   Overcast
5:52 AM 36.0 °F 31.1 °F 32.0 °F 86% 30.53 in 10.0 mi SE 5.8 mph - 0.00 in Rain Light Rain
6:52 AM 37.9 °F 32.7 °F 33.1 °F 83% 30.53 in 10.0 mi SE 6.9 mph - 0.00 in   Overcast
7:52 AM 39.9 °F 35.1 °F 32.0 °F 73% 30.51 in 10.0 mi SE 6.9 mph - N/A   Overcast
8:52 AM 39.9 °F 33.4 °F 33.1 °F 77% 30.49 in 10.0 mi SSE 10.4 mph 19.6 mph N/A   Overcast
9:52 AM 41.0 °F 33.5 °F 32.0 °F 70% 30.48 in 10.0 mi SSE 13.8 mph 21.9 mph N/A   Overcast
11:52 AM 45.0 °F 38.2 °F 33.1 °F 63% 30.44 in 10.0 mi SSE 15.0 mph 20.7 mph N/A   Overcast
12:52 PM 46.0 °F 39.3 °F 33.1 °F 61% 30.42 in 10.0 mi SE 16.1 mph 24.2 mph N/A   Overcast
2:52 PM 45.0 °F 38.5 °F 33.1 °F 63% 30.38 in 10.0 mi SSE 13.8 mph 23.0 mph N/A   Overcast
3:52 PM 43.0 °F 36.8 °F 34.0 °F 71% 30.38 in 10.0 mi SE 11.5 mph 20.7 mph N/A   Overcast
4:52 PM 42.1 °F 35.2 °F 33.1 °F 70% 30.36 in 10.0 mi South 12.7 mph - N/A   Overcast
5:52 PM 41.0 °F 33.5 °F 34.0 °F 76% 30.35 in 9.0 mi SE 13.8 mph 20.7 mph 0.01 in Rain Light Rain
6:52 PM 39.0 °F 31.4 °F 35.1 °F 86% 30.32 in 10.0 mi SSE 12.7 mph - 0.02 in Rain Light Rain
7:52 PM 39.0 °F 31.8 °F 34.0 °F 82% 30.30 in 10.0 mi South 11.5 mph 20.7 mph 0.00 in Rain Light Rain
8:52 PM 37.9 °F 30.0 °F 34.0 °F 86% 30.30 in 10.0 mi SSE 12.7 mph - 0.01 in Rain Light Rain
9:52 PM 37.9 °F 30.0 °F 33.1 °F 83% 30.28 in 10.0 mi SE 12.7 mph 24.2 mph 0.02 in Rain Light Rain
10:03 PM 37.9 °F 30.5 °F 33.1 °F 83% 30.24 in 10.0 mi SSE 11.5 mph 20.7 mph 0.00 in Rain Light Rain
10:35 PM 37.9 °F 29.2 °F 33.1 °F 83% 30.22 in 10.0 mi SSE 15.0 mph 20.7 mph 0.00 in Rain Light Rain
10:48 PM 37.4 °F 29.8 °F 33.8 °F 87% 30.21 in 10.0 mi SE 11.5 mph - 0.00 in Rain Light Rain
10:52 PM 37.9 °F 30.5 °F 33.1 °F 83% 30.25 in 10.0 mi SSE 11.5 mph - 0.00 in Rain Light Rain
11:52 PM 37.9 °F 33.5 °F 34.0 °F 86% 30.20 in 5.0 mi SE 5.8 mph - 0.07 in Rain Rain